Regional Weather Roundup
Issued by NWS

Home | Current Version | Previous Version | Text Only | Print | Product List | Glossary Off
Versions: 1 2 3 4 5 6 7 8 9 10 11 12 13 14 15 16 17 18 19 20 21 22 23 24 25 26 27 28 29 30 31 32 33 34 35 36 37 38 39 40 41 42 43 44 45 46 47 48 49 50

000
ASUS43 KLSX 181307
RWRMO

WEATHER SUMMARY FOR MISSOURI
NATIONAL WEATHER SERVICE SPRINGFIELD MO
800 AM CDT FRI APR 18 2014

NOTE: "FAIR" INDICATES FEW OR NO CLOUDS BELOW 12,000 FEET WITH NO
       SIGNIFICANT WEATHER AND/OR OBSTRUCTIONS TO VISIBILITY.
       CURRENT SKY AND/OR WEATHER CONDITIONS ARE NOT AVAILABLE FOR
       CHILLICOTHE AND FARMINGTON.

MOZ001>031-035>038-043-044-053-054-181400-
...NORTHERN AND WESTERN MISSOURI...

CITY           SKY/WX    TMP DP  RH WIND       PRES   REMARKS
KANSAS CTY INT PTSUNNY   41  35  79 CALM      30.32R HAZE
KANSAS C DTWN  SUNNY     41  36  82 CALM      30.32R HAZE
LEE`S SUMMIT   SUNNY     40  36  86 E3        30.32R FOG
ST JOSEPH      SUNNY     34  31  88 CALM      30.34R FOG
CHILLICOTHE      N/A     37  33  85 CALM      30.35R
KIRKSVILLE     SUNNY     39  34  82 NE7       30.34R

$$
MOZ066>068-077>081-088>096-101>105-181400-
...SOUTHWEST MISSOURI...

CITY           SKY/WX    TMP DP  RH WIND       PRES   REMARKS
SPRINGFIELD    SUNNY     48  40  73 NE3       30.27R
JOPLIN         SUNNY     44  40  85 NE5       30.29R FOG

$$
MOZ032>034-039>042-045>050-055>058-069>072-181400-
...CENTRAL MISSOURI...

CITY           SKY/WX    TMP DP  RH WIND       PRES   REMARKS
COLUMBIA       SUNNY     45  40  82 NE7       30.31R
JEFFERSON CITY SUNNY     43  40  89 CALM      30.32R FOG
ROLLA          SUNNY     46  39  76 NE8       30.28R
SEDALIA        SUNNY     42  38  85 NE3       30.32R FOG
WHITEMAN AFB   MOSUNNY   37  35  89 NE2       30.32R
OSAGE BEACH    SUNNY     45  37  76 NE7       30.32R

$$
MOZ051-052-059>065-181400-
...EAST CENTRAL MISSOURI...

CITY           SKY/WX    TMP DP  RH WIND       PRES   REMARKS
ST LOUIS INTL  MOSUNNY   50  38  63 NE3       30.31R
SPIRIT OF STL  SUNNY     48  40  73 CALM      30.31R
ST CHARLES     SUNNY     50  39  66 NE8       30.31R

$$
MOZ072>076-082>087-097>100-106>115-181400-
...SOUTH CENTRAL AND SOUTHEAST MISSOURI...

CITY           SKY/WX    TMP DP  RH WIND       PRES   REMARKS
CAPE GIRARDEAU PTSUNNY   51  46  83 E3        30.28R
FARMINGTON     SUNNY     50  41  71 N6        30.31R
POPLAR BLUFF   PTSUNNY   56  45  66 N5        30.25R
WEST PLAINS    SUNNY     51  42  71 N3        30.28R

$$



USA.gov is the U.S. government's official web portal to all federal, state and local government web resources and services.